Regional Weather Roundup
Issued by NWS Green Bay, WI

Home | Current Version | Previous Version | Text Only | Print | Product List | Glossary On
Versions: 1 2 3 4 5 6 7 8 9 10 11 12 13 14 15 16 17 18 19 20 21 22 23 24 25 26 27 28 29 30 31 32 33 34 35 36 37 38 39 40 41 42 43 44 45 46 47 48 49 50
000
ASUS43 KGRB 250410
RWRGRB

NORTH-CENTRAL AND NORTHEAST WISCONSIN REGIONAL WEATHER ROUNDUP
NATIONAL WEATHER SERVICE GREEN BAY WI
1100 PM CDT FRI APR 24 2015

WIZ005-009-010>012-018-019-250500-
NORTH CENTRAL WISCONSIN

CITY           SKY/WX    TMP DP  RH WIND       PRES   REMARKS
IRONWOOD       CLOUDY    39  27  60 E7        29.92F
MANITOWISH WTR CLOUDY    42  29  62 SE6       29.94R
ARBOR VITAE    CLOUDY    42  30  64 SE10      29.94S
EAGLE RIVER    CLOUDY    40  29  65 S5        29.95S
LAND O LAKES   CLOUDY    40  29  65 CALM      29.96S
RHINELANDER    CLOUDY    40  29  64 SE6       29.96S
PHILLIPS       CLOUDY    43  29  57 SE12      29.92R
ANTIGO         CLOUDY    37  29  73 E10       29.96S
TOMAHAWK       CLOUDY    40  29  64 CALM      29.95S
MERRILL        CLOUDY    41  32  70 SE3       29.95S
$$

WIZ013-073-250500-
NORTHEAST WISCONSIN

CITY           SKY/WX    TMP DP  RH WIND       PRES   REMARKS
IRON MOUNTAIN  CLOUDY    38  26  62 E6        29.98S
MARINETTE      CLOUDY    37  23  56 N3        30.01S
OCONTO         CLOUDY    39  21  50 CALM      30.01S
$$

WIZ017-030-035>037-045-250500-
CENTRAL WISCONSIN

CITY           SKY/WX    TMP DP  RH WIND       PRES   REMARKS
MEDFORD        DRIZZLE   39  33  79 SE8       29.93S
WAUSAU         CLOUDY    41  32  70 SE9       29.94F
MOSINEE        CLOUDY    41  32  70 E7        29.96S
MARSHFIELD     LGT RAIN  40  33  76 SE12      29.93S
WISC RAPIDS    LGT RAIN  41  36  82 SE9       29.96R
STEVENS POINT  CLOUDY    39  28  66 E8        29.97S
WAUPACA        DRIZZLE   41  33  73 E8        29.99S
SHAWANO        CLOUDY    42  22  46 E3        30.00S
CLINTONVILLE   CLOUDY    41  23  48 SE8       30.00R
$$

WIZ038-039-048-051-250500-
FOX VALLEY

CITY           SKY/WX    TMP DP  RH WIND       PRES   REMARKS
NWS GREEN BAY  CLOUDY    41  25  53 S3        30.01R
APPLETON       CLOUDY    39  28  65 SE8       30.01R
OSHKOSH        CLOUDY    38  33  82 E7        29.98S
FOND DU LAC    LGT RAIN  38  33  82 E9        29.98F
$$

WIZ022-050-052-250500-
EAST CENTRAL WISCONSIN

CITY           SKY/WX    TMP DP  RH WIND       PRES   REMARKS
STURGEON BAY   CLOUDY    39  19  45 E7        30.02R
MANITOWOC      CLOUDY    39  28  64 CALM      30.01S
SHEBOYGAN      CLOUDY    37  31  78 CALM      30.00S
$$

LMZ563-521-522-541>543-250500-
LAKESHORE

STATION/POSITION TIME  TEMP    WIND        PRES    VSBY  WAVE
                       AIR SEA DIR/SP/G                  HT/PER
                 (UTC) (F)     (DEG/KT/KT) (MB)    (MI)  (FT/S)
SHEBOYGAN LKSHOR 0400   38      40/  4/  5 1016.8F
KEWAUNEE LKSHORE 0400           70/  1/  5   N/A
NORTHPORT PIER   0400   37      90/  6/  8 1016.6S
SISTER BAY LKSHO 0400   39     100/  9/ 12   N/A
CHAMBERS ISLAND  0400   39      70/  7/  9 1016.3F
MENOMINEE LKSHOR 0400   39      40/  6/  6 1016.8S
$$


USA.gov is the U.S. government's official web portal to all federal, state and local government web resources and services.